Hagerstown, MD

6:21 AM EDT on October 16, 2019 (GMT -0400)
Hagerstown Regional-Henson

Weather History for KHGR - August, 2019

Change the Weather History Date:

Wednesday, August 28, 2019

  Actual Average Record
Temperature  
Mean Temperature 72 °F 72 °F  
Max Temperature 78 °F 81 °F 95 °F (2018)
Min Temperature 66 °F 62 °F 56 °F (2010)
Degree Days  
Heating Degree Days 0 0  
Month to date heating degree days 0 0  
Since 1 June heating degree days 5 18  
Since 1 July heating degree days 0 0  
Cooling Degree Days 7 7  
Month to date cooling degree days 316 242  
Year to date cooling degree days 1183 848  
Since 1 June cooling degree days 1001 772  
Growing Degree Days 23 (Base 50)    
Moisture  
Dew Point 66 °F    
Average Humidity 78    
Maximum Humidity 87    
Minimum Humidity 69    
Precipitation  
Precipitation 0.12 in 0.10 in 0.64 in (2002)
Month to date precipitation 2.40 2.83  
Year to date precipitation 28.37 26.32  
Sea Level Pressure  
Sea Level Pressure 29.91 in    
Wind  
Wind Speed 6 mph (SSW)    
Max Wind Speed 13 mph    
Max Gust Speed 16 mph    
Visibility 9 miles    
Events Rain    
T = Trace of Precipitation, MM = Missing Value Source: NWS Daily Summary

Daily Weather History Graph

Daily Weather History Graph

Search for Another Location

Airport or City:

Astronomy

Aug. 28, 2019 Rise Set
Actual Time 6:35 AM EDT 7:48 PM EDT
Civil Twilight 6:07 AM EDT 8:16 PM EDT
Nautical Twilight 5:33 AM EDT 8:49 PM EDT
Astronomical Twilight 4:58 AM EDT 9:24 PM EDT
Moon 4:05 AM EDT (8/28) 6:58 PM EDT (8/28)
Length of Visible Light 14h 09m
Length of Day
13h 13m
Waning Crescent, 5% of the Moon is Illuminated
Aug 28
Waning Crescent
Aug 30
New
Sep 5
First Quarter
Sep 14
Full
Sep 21
Last Quarter

Hourly Weather History & Observations

Time (EDT) Temp. Dew Point Humidity Pressure Visibility Wind Dir Wind Speed Gust Speed Precip Events Conditions
12:53 AM 72.0 °F 64.0 °F 76% 29.98 in 10.0 mi SSE 10.4 mph - N/A   Overcast
1:53 AM 72.0 °F 63.0 °F 73% 29.97 in 10.0 mi SSE 9.2 mph - N/A   Overcast
2:53 AM 71.1 °F 63.0 °F 75% 29.96 in 10.0 mi SSE 8.1 mph - N/A   Overcast
3:53 AM 71.1 °F 64.0 °F 78% 29.94 in 10.0 mi SSE 8.1 mph - N/A   Overcast
4:53 AM 71.1 °F 64.0 °F 78% 29.94 in 10.0 mi SSE 6.9 mph - N/A   Overcast
5:23 AM 71.1 °F 64.0 °F 78% 29.92 in 10.0 mi SSE 4.6 mph - N/A   Overcast
5:37 AM 71.1 °F 64.9 °F 81% 29.92 in 10.0 mi SSE 5.8 mph - N/A   Overcast
5:53 AM 71.1 °F 64.9 °F 81% 29.93 in 10.0 mi SE 6.9 mph - N/A   Overcast
6:53 AM 70.0 °F 64.9 °F 84% 29.93 in 10.0 mi SSE 6.9 mph - N/A   Overcast
7:53 AM 71.1 °F 66.0 °F 84% 29.92 in 10.0 mi South 5.8 mph - N/A   Overcast
8:53 AM 73.0 °F 66.0 °F 79% 29.91 in 10.0 mi South 9.2 mph - N/A   Mostly Cloudy
9:53 AM 73.0 °F 66.0 °F 79% 29.92 in 10.0 mi South 8.1 mph - N/A   Overcast
10:48 AM 73.4 °F 66.2 °F 78% 29.90 in 10.0 mi South 6.9 mph - N/A   Mostly Cloudy
10:53 AM 73.9 °F 66.0 °F 76% 29.91 in 10.0 mi SSW 6.9 mph - N/A   Overcast
11:14 AM 73.9 °F 66.9 °F 79% 29.89 in 10.0 mi South 8.1 mph - N/A   Mostly Cloudy
11:46 AM 75.9 °F 66.0 °F 71% 29.89 in 10.0 mi SSW 8.1 mph - N/A   Mostly Cloudy
11:53 AM 75.9 °F 66.9 °F 74% 29.90 in 10.0 mi Variable 5.8 mph - N/A   Mostly Cloudy
12:53 PM 75.0 °F 68.0 °F 79% 29.89 in 4.0 mi SW 4.6 mph - 0.01 in Rain Light Rain
1:06 PM 75.9 °F 68.0 °F 76% 29.87 in 10.0 mi West 4.6 mph - 0.00 in   Overcast
1:47 PM 73.4 °F 69.8 °F 88% 29.87 in 1.5 mi NW 10.4 mph - 0.01 in Rain Light Rain
1:53 PM 73.0 °F 69.1 °F 87% 29.89 in 1.5 mi NW 10.4 mph - 0.02 in Rain Rain
2:11 PM 72.0 °F 69.1 °F 91% 29.87 in 2.0 mi WNW 5.8 mph - 0.07 in Rain Rain
2:43 PM 72.0 °F 70.0 °F 93% 29.88 in 3.0 mi WNW 4.6 mph - 0.08 in   Overcast
2:53 PM 73.0 °F 70.0 °F 90% 29.90 in 5.0 mi WNW 3.5 mph - 0.08 in   Overcast
3:01 PM 73.0 °F 70.0 °F 90% 29.88 in 8.0 mi West 4.6 mph - 0.00 in Rain Light Rain
3:53 PM 73.9 °F 69.1 °F 85% 29.88 in 10.0 mi NW 5.8 mph - 0.01 in   Overcast
4:53 PM 77.0 °F 68.0 °F 74% 29.88 in 10.0 mi Variable 3.5 mph - N/A   Mostly Cloudy
5:53 PM 77.0 °F 66.9 °F 71% 29.88 in 10.0 mi ENE 4.6 mph - N/A   Partly Cloudy
6:53 PM 75.9 °F 66.0 °F 71% 29.88 in 10.0 mi ESE 3.5 mph - N/A   Partly Cloudy
7:53 PM 73.9 °F 66.0 °F 76% 29.90 in 10.0 mi Calm Calm - N/A   Scattered Clouds
8:53 PM 73.0 °F 66.0 °F 79% 29.91 in 10.0 mi Calm Calm - N/A   Clear
9:53 PM 71.1 °F 64.9 °F 81% 29.92 in 10.0 mi Calm Calm - N/A   Clear
10:53 PM 69.1 °F 64.0 °F 84% 29.93 in 10.0 mi West 3.5 mph - N/A   Clear
11:53 PM 66.9 °F 61.0 °F 81% 29.94 in 10.0 mi NW 5.8 mph - N/A   Clear